Location: Unspecified
(43.0000°N, 0.0000°E)
Time: 09:33:47
(UTC+00:00)

PicSat - Pass Details

Date: 19 July 2019
Orbit: 486 x 500 km, 97.5° (Epoch: 25 August)

Event Time Altitude Azimuth Distance (km) Brightness Sun altitude
Exits shadow 22:27:20 19° 247° (WSW) 1,218 ? -22.3°
Maximum altitude 22:28:08 21° 265° (W) 1,166 ? -22.3°
Drops below altitude 10° 22:30:57 10° 316° (NW) 1,699 ? -22.6°
Sets 22:33:26 0° 333° (NNW) 2,585 ? -22.7°
